User: anonymous   Login
Location: Unspecified
(0.0000°N, 0.0000°E)
Time: 23:19:50
(UTC+00:00)
Language:

Cosmos 1741 - Orbit

View from above orbital plane
View from above orbital plane
View from above satellite
View from above satellite

Ground track
Ground track

The orbit data is extracted from the following two-line orbital elements,

1 16681U 86030A   18015.73153851 +.00000017 +00000-0 +15893-4 0  9995
2 16681 074.0242 270.6356 0019760 212.1699 171.5447 14.32949798659055
Epoch (UTC): 15 January 2018 17:33:24
Eccentricity: 0.0019760
inclination: 74.0242°
perigee height: 768 km
apogee height: 796 km
right ascension of ascending node: 270.6356°
argument of perigee: 212.1699°
revolutions per day: 14.32949798
mean anomaly at epoch: 171.5447°
orbit number at epoch: 65905

The dashed part of the orbit path shows where the satellite is in the earth's shadow,  

DLR